Watertown, NY

11:37 PM EST on November 13, 2019 (GMT -0500)
Watertown International

Weather History for KART - September, 2019

Change the Weather History Date:

Monday, September 2, 2019

  Actual Average Record
Temperature  
Mean Temperature 67 °F 64 °F  
Max Temperature 71 °F 75 °F 90 °F (1952)
Min Temperature 62 °F 53 °F 31 °F (1967)
Degree Days  
Heating Degree Days 0 3  
Month to date heating degree days 3 6  
Since 1 July heating degree days 32 78  
Cooling Degree Days 2 2  
Month to date cooling degree days 2 4  
Year to date cooling degree days 323 328  
Growing Degree Days 17 (Base 50)    
Moisture  
Dew Point 62 °F    
Average Humidity 77    
Maximum Humidity 93    
Minimum Humidity 61    
Precipitation  
Precipitation 0.60 in 0.11 in 1.08 in (1981)
Month to date precipitation 0.82 0.21  
Year to date precipitation 28.91 22.01  
Sea Level Pressure  
Sea Level Pressure 29.97 in    
Wind  
Wind Speed 7 mph (SW)    
Max Wind Speed 14 mph    
Max Gust Speed 23 mph    
Visibility 7 miles    
Events Fog , Rain    
T = Trace of Precipitation, MM = Missing Value Source: NWS Daily Summary

Daily Weather History Graph

Daily Weather History Graph

Search for Another Location

Airport or City:

Astronomy

Sep. 02, 2019 Rise Set
Actual Time 6:28 AM EDT 7:38 PM EDT
Civil Twilight 5:58 AM EDT 8:08 PM EDT
Nautical Twilight 5:22 AM EDT 8:43 PM EDT
Astronomical Twilight 4:45 AM EDT 9:21 PM EDT
Moon 10:14 AM EDT (9/2) 9:50 PM EDT (9/2)
Length of Visible Light 14h 09m
Length of Day
13h 10m
Waxing Crescent, 15% of the Moon is Illuminated
Sep 2
Waxing Crescent
Sep 5
First Quarter
Sep 14
Full
Sep 21
Last Quarter
Sep 28
New

Hourly Weather History & Observations

Time (EDT) Temp. Dew Point Humidity Pressure Visibility Wind Dir Wind Speed Gust Speed Precip Events Conditions
12:56 AM 64.0 °F 61.0 °F 90% 30.05 in 5.0 mi South 8.1 mph 18.4 mph 0.05 in Rain Rain
1:56 AM 64.0 °F 61.0 °F 90% 30.03 in 2.5 mi South 8.1 mph - 0.04 in Rain Rain
2:08 AM 64.0 °F 61.0 °F 90% 30.04 in 10.0 mi South 8.1 mph - 0.00 in Rain Light Rain
2:56 AM 64.9 °F 62.1 °F 90% 30.00 in 3.0 mi South 8.1 mph - 0.06 in Rain Light Rain
3:56 AM 64.9 °F 61.0 °F 87% 29.97 in 6.0 mi South 9.2 mph 19.6 mph 0.01 in Rain Light Rain
4:56 AM 64.9 °F 61.0 °F 87% 29.96 in 10.0 mi SSW 9.2 mph 18.4 mph 0.01 in Rain Light Rain
5:56 AM 64.9 °F 62.1 °F 90% 29.96 in 9.0 mi South 10.4 mph 17.3 mph 0.03 in Rain Light Rain
6:17 AM 64.9 °F 62.1 °F 90% 29.97 in 5.0 mi Variable 5.8 mph - 0.00 in Rain Light Rain
6:56 AM 64.9 °F 62.1 °F 90% 29.95 in 10.0 mi South 9.2 mph 19.6 mph 0.01 in   Overcast
7:56 AM 64.9 °F 62.1 °F 90% 29.95 in 10.0 mi SSW 10.4 mph - 0.01 in   Overcast
8:36 AM 64.9 °F 62.1 °F 90% 29.96 in 1.8 mi SSW 10.4 mph - 0.03 in Rain Rain
8:42 AM 64.0 °F 62.1 °F 93% 29.96 in 0.8 mi WSW 9.2 mph - 0.08 in Rain Heavy Rain
8:56 AM 64.9 °F 63.0 °F 93% 29.95 in 0.5 mi West 8.1 mph - 0.24 in Fog , Rain Rain
9:05 AM 64.9 °F 63.0 °F 93% 29.96 in 1.5 mi West 5.8 mph - 0.02 in Rain Rain
9:18 AM 64.9 °F 64.0 °F 97% 29.96 in 2.0 mi WSW 3.5 mph - 0.04 in Rain Light Rain
9:26 AM 64.9 °F 64.0 °F 97% 29.96 in 7.0 mi WSW 3.5 mph - 0.04 in Rain Light Rain
9:37 AM 66.0 °F 63.0 °F 90% 29.96 in 6.0 mi WNW 4.6 mph - 0.04 in Rain Light Rain
9:56 AM 64.9 °F 62.1 °F 90% 29.95 in 1.5 mi WNW 5.8 mph - 0.08 in Rain Heavy Rain
10:10 AM 64.9 °F 62.1 °F 90% 29.96 in 3.0 mi WNW 3.5 mph - 0.03 in Rain Light Rain
10:19 AM 64.9 °F 63.0 °F 93% 29.96 in 7.0 mi West 3.5 mph - 0.03 in Rain Light Rain
10:54 AM 64.4 °F 62.6 °F 94% 29.96 in 0.8 mi Calm Calm - 0.08 in Rain Light Rain
10:56 AM 64.9 °F 63.0 °F 93% 29.95 in 0.8 mi Calm Calm - 0.10 in Rain Light Rain
11:09 AM 64.9 °F 63.0 °F 93% 29.97 in 2.0 mi WSW 3.5 mph - 0.01 in Rain Light Rain
11:12 AM 64.9 °F 63.0 °F 93% 29.97 in 3.0 mi WSW 3.5 mph - 0.01 in Rain Light Rain
11:52 AM 66.2 °F 62.6 °F 88% 29.96 in 10.0 mi SW 4.6 mph - 0.01 in   Overcast
11:56 AM 66.0 °F 63.0 °F 90% 29.96 in 10.0 mi WSW 3.5 mph - 0.01 in   Overcast
12:31 PM 66.9 °F 62.1 °F 84% 29.96 in 10.0 mi WSW 5.8 mph - N/A   Overcast
12:56 PM 68.0 °F 62.1 °F 81% 29.95 in 10.0 mi WSW 5.8 mph - N/A   Overcast
1:56 PM 68.0 °F 61.0 °F 78% 29.95 in 10.0 mi WSW 8.1 mph - N/A   Overcast
2:35 PM 71.1 °F 62.1 °F 73% 29.96 in 10.0 mi WSW 11.5 mph 19.6 mph N/A   Mostly Cloudy
2:56 PM 70.0 °F 60.1 °F 71% 29.95 in 10.0 mi WSW 10.4 mph 18.4 mph N/A   Partly Cloudy
3:56 PM 71.1 °F 57.0 °F 61% 29.95 in 10.0 mi WSW 11.5 mph - N/A   Clear
4:56 PM 70.0 °F 60.1 °F 71% 29.95 in 10.0 mi WSW 9.2 mph - N/A   Clear
5:56 PM 69.1 °F 59.0 °F 70% 29.96 in 10.0 mi SW 10.4 mph - N/A   Clear
6:56 PM 66.9 °F 60.1 °F 79% 29.97 in 10.0 mi SW 4.6 mph - N/A   Clear
7:56 PM 64.9 °F 59.0 °F 81% 29.97 in 10.0 mi South 3.5 mph - N/A   Mostly Cloudy
8:56 PM 64.0 °F 60.1 °F 87% 29.98 in 10.0 mi SSW 4.6 mph - N/A   Overcast
9:56 PM 63.0 °F 60.1 °F 90% 29.99 in 10.0 mi South 4.6 mph - N/A   Mostly Cloudy
10:56 PM 63.0 °F 60.1 °F 90% 30.00 in 10.0 mi South 3.5 mph - N/A   Overcast
11:56 PM 64.0 °F 60.1 °F 87% 30.01 in 10.0 mi North 4.6 mph - N/A   Overcast